This is the latest recevied weather packets stored in our database for station/object K2CCS. If no packets are shown the sender has not sent any weather packets the latest 10 day(s).
| Time | Temp. | Humidity | Pressure | Rain* | Wind** | Luminosity | Snow |
|---|---|---|---|---|---|---|---|
| 1777937833 | 20.56° C | 44% | 1009.9 hPa | 0 mm | - | 13 W/m² | - |
| 1777937529 | 20.56° C | 43% | 1009.7 hPa | 0 mm | - | 17 W/m² | - |
| 1777937226 | 21.11° C | 42% | 1009.9 hPa | 0 mm | - | 20 W/m² | - |
| 1777936923 | 21.11° C | 41% | 1009.8 hPa | 0 mm | - | 26 W/m² | - |
| 1777936619 | 21.11° C | 41% | 1009.7 hPa | 0 mm | - | 26 W/m² | - |
| 1777936316 | 21.67° C | 41% | 1009.8 hPa | 0 mm | - | 27 W/m² | - |
| 1777936012 | 21.67° C | 40% | 1009.6 hPa | 0 mm | - | 28 W/m² | - |
| 1777935711 | 21.67° C | 41% | 1009.4 hPa | 0 mm | - | 37 W/m² | - |
| 1777935409 | 22.22° C | 40% | 1009.2 hPa | 0 mm | - | 39 W/m² | - |
| 1777935105 | 22.22° C | 39% | 1009.4 hPa | 0 mm | - | 46 W/m² | - |
| 1777934802 | 22.22° C | 39% | 1009.3 hPa | 0 mm | - | 47 W/m² | - |
| 1777934498 | 22.22° C | 38% | 1009.4 hPa | 0 mm | - | 58 W/m² | - |
| 1777934196 | 22.22° C | 39% | 1009.3 hPa | 0 mm | - | 104 W/m² | - |
| 1777933891 | 22.22° C | 40% | 1009.4 hPa | 0 mm | - | 64 W/m² | - |
| 1777933589 | 22.22° C | 38% | 1009.3 hPa | 0 mm | - | 115 W/m² | - |
| 1777933286 | 22.22° C | 39% | 1009.3 hPa | 0 mm | - | 69 W/m² | - |
| 1777932983 | 22.22° C | 38% | 1009.1 hPa | 0 mm | - | 111 W/m² | - |
| 1777932680 | 21.67° C | 38% | 1009.3 hPa | 0 mm | - | 71 W/m² | - |
| 1777932376 | 21.67° C | 38% | 1009.3 hPa | 0 mm | - | 68 W/m² | - |
| 1777932074 | 22.22° C | 38% | 1009.2 hPa | 0 mm | - | 80 W/m² | - |
| 1777931769 | 22.22° C | 38% | 1009.3 hPa | 0 mm | - | 67 W/m² | - |
| 1777931467 | 22.78° C | 36% | 1009.3 hPa | 0 mm | - | 202 W/m² | - |
| 1777931163 | 23.33° C | 37% | 1008.9 hPa | 0 mm | - | 251 W/m² | - |
| 1777930859 | 23.33° C | 36% | 1009.2 hPa | 0 mm | - | 282 W/m² | - |
| 1777930556 | 23.33° C | 37% | 1009.4 hPa | 0 mm | - | 294 W/m² | - |
* Rain latest hour (hover to see other rain measurements)
** Current wind speed in m/s (hover to see current wind gust speed)